Location: Unspecified
(17.6330°N, 0.0000°E)
Time: 11:07:09
(UTC+00:00)

Courier 1B - Visible Passes

Search period start: 20 June 2019 00:00
Search period end: 30 June 2019 00:00
Orbit: 963 x 1209 km, 28.3° (Epoch: 20 June)

Date Brightness Start Highest point End Pass type
(mag) Time Alt. Az. Time Alt. Az. Time Alt. Az.
20 Jun 9.1 20:15:27 10° WNW 20:22:16 38° N 20:29:23 10° ENE visible
20 Jun 8.9 22:10:28 10° WNW 22:16:39 40° N 22:16:39 40° N visible
21 Jun 9.0 19:21:19 10° WNW 19:28:04 40° N 19:35:11 10° ENE visible
21 Jun 8.9 21:16:29 10° WNW 21:23:28 38° N 21:25:57 31° NE visible
21 Jun 9.9 23:10:53 10° WNW 23:12:48 19° WNW 23:12:48 19° WNW visible
22 Jun 9.0 20:22:29 10° WNW 20:29:13 36° N 20:35:11 14° ENE visible
22 Jun 8.9 22:17:00 10° WNW 22:22:03 40° NNW 22:22:03 40° NNW visible
23 Jun 9.1 19:28:27 10° WNW 19:35:00 36° N 19:41:54 10° ENE visible
23 Jun 8.5 21:23:08 10° WNW 21:30:19 46° NNE 21:31:18 44° NNE visible
23 Jun 10.1 23:17:20 10° WNW 23:18:10 14° WNW 23:18:10 14° WNW visible
24 Jun 8.8 20:29:16 10° WNW 20:36:09 40° N 20:40:32 22° ENE visible
24 Jun 9.1 22:23:26 10° WNW 22:27:24 34° WNW 22:27:24 34° WNW visible
25 Jun 9.0 19:35:23 10° WNW 19:41:58 37° N 19:48:53 10° ENE visible
25 Jun 8.1 21:29:37 10° WNW 21:36:39 60° N 21:36:39 60° N visible
26 Jun 8.4 20:35:50 10° WNW 20:42:56 51° NNE 20:45:54 34° ENE visible
26 Jun 9.5 22:29:58 10° WNW 22:32:47 25° WNW 22:32:47 25° WNW visible
27 Jun 8.6 19:42:05 10° WNW 19:48:51 43° NNE 19:55:11 13° E visible
27 Jun 8.1 21:36:06 10° WNW 21:42:04 62° WNW 21:42:04 62° WNW visible
28 Jun 7.9 20:42:19 10° WNW 20:49:35 71° NNE 20:51:22 53° E visible
28 Jun 9.9 22:36:48 10° W 22:38:14 16° W 22:38:14 16° W visible
29 Jun 8.2 19:48:36 10° WNW 19:55:34 58° NNE 20:00:41 21° E visible
29 Jun 8.6 21:42:45 10° WNW 21:47:34 42° W 21:47:34 42° W visible
